Simultaneous Nadir Overpasses (SNOs) Predictions

Prediction of SNOs between NOAA-19 and TERRA Satellite Orbit:

Table of predicted SNOs for the next 14.0 days since TLE Epoch: 10/18/2014
Index Date (NOAA-19) Time (NOAA-19) Lat,Lon (NOAA-19) SZA (NOAA-19 ) Date (TERRA) Time (TERRA) Lat,Lon (TERRA) SZA (TERRA ) Distance(km) Time Diff (sec)
1 10/18/2014 10:51:30 71.10, 19.20 80.76 10/18/2014 10:52:20 71.11, 19.24 80.78 1.74 50
2 10/18/2014 11:42:24 -71.01,-173.37 99.31 10/18/2014 11:41:50 -70.99,-173.31 99.34 3.05 34
3 10/20/2014 15:35:21 71.52, -52.46 81.96 10/20/2014 15:36:31 71.40, -51.35 81.88 41.24 70
4 10/20/2014 16:26:07 -71.00, 115.74 98.53 10/20/2014 16:26:06 -71.02, 115.67 98.51 3.29 1
5 10/22/2014 21:09:52 -71.10, 44.67 97.65 10/22/2014 21:10:21 -71.08, 44.70 97.66 2.12 29
6 10/22/2014 22:00:56 70.96,-147.86 82.23 10/22/2014 21:59:48 70.98,-147.82 82.24 2.95 68
7 10/25/2014 01:53:36 -71.15, -26.32 96.83 10/25/2014 01:54:36 -71.13, -26.29 96.84 2.25 60
8 10/25/2014 02:44:40 71.03, 141.11 83.07 10/25/2014 02:44:03 71.03, 141.18 83.06 2.57 37
9 10/27/2014 06:37:33 -71.86, -98.54 95.41 10/27/2014 06:38:40 -71.76, -96.34 95.43 77.55 67
10 10/27/2014 07:28:23 71.06, 70.16 83.85 10/27/2014 07:28:18 71.05, 70.16 83.84 0.70 5
11 10/27/2014 08:19:07 -70.36,-121.40 96.79 10/27/2014 08:17:58 -70.40,-123.20 96.83 67.12 69
12 10/29/2014 12:12:06 71.09, -0.80 84.62 10/29/2014 12:12:32 71.12, -0.80 84.65 2.94 26
13 10/29/2014 13:03:02 -70.99, 166.65
